TimeCDT,TemperatureF,Dew PointF,Humidity,Sea Level PressureIn,VisibilityMPH,Wind Direction,Wind SpeedMPH,Gust SpeedMPH,PrecipitationIn,Events,Conditions,WindDirDegrees,DateUTC
12:15 AM,60.3,42.3,51,29.93,10.0,NW,10.4,-,N/A,,Clear,310,2012-10-04 05:15:00
12:35 AM,62.8,42.4,47,29.95,10.0,NNW,12.7,19.6,N/A,,Clear,340,2012-10-04 05:35:00
12:55 AM,60.8,42.3,50,29.96,10.0,NW,12.7,19.6,N/A,,Clear,320,2012-10-04 05:55:00
1:15 AM,59.2,41.5,52,29.98,10.0,NW,11.5,31.1,N/A,,Clear,320,2012-10-04 06:15:00
1:35 AM,57.7,41.5,55,30.00,10.0,NNW,13.8,20.7,N/A,,Clear,330,2012-10-04 06:35:00
1:55 AM,56.1,41.4,58,30.01,10.0,NW,17.3,24.2,N/A,,Clear,320,2012-10-04 06:55:00
2:15 AM,54.5,41.2,61,30.03,10.0,NW,13.8,25.3,N/A,,Clear,320,2012-10-04 07:15:00
2:35 AM,54.1,41.2,62,30.05,10.0,NW,15.0,28.8,N/A,,Clear,320,2012-10-04 07:35:00
2:55 AM,53.4,42.4,66,30.04,10.0,NNW,15.0,23.0,N/A,Rain-Thunderstorm,Rain,330,2012-10-04 07:55:00
3:15 AM,51.1,44.8,79,30.06,10.0,NW,11.5,21.9,0.03,Rain-Thunderstorm,Thunderstorms and Rain,310,2012-10-04 08:15:00
3:35 AM,50.5,45.5,83,30.05,10.0,NW,13.8,21.9,0.03,Thunderstorm,Thunderstorm,320,2012-10-04 08:35:00
3:55 AM,51.1,44.6,78,30.04,10.0,NW,15.0,23.0,0.03,Thunderstorm,Overcast,320,2012-10-04 08:55:00
4:15 AM,50.0,44.4,81,30.03,10.0,NW,13.8,27.6,N/A,Thunderstorm,Overcast,320,2012-10-04 09:15:00
4:35 AM,49.5,44.1,82,30.08,10.0,NW,12.7,27.6,N/A,,Mostly Cloudy,310,2012-10-04 09:35:00
4:55 AM,49.3,42.6,78,30.10,10.0,NW,19.6,25.3,N/A,,Mostly Cloudy,310,2012-10-04 09:55:00
5:15 AM,49.1,41.9,76,30.11,10.0,NW,17.3,25.3,N/A,,Mostly Cloudy,320,2012-10-04 10:15:00
5:35 AM,48.2,41.4,77,30.12,10.0,NW,11.5,24.2,N/A,Rain,Light Rain,320,2012-10-04 10:35:00
5:55 AM,47.8,40.8,77,30.11,10.0,NW,12.7,21.9,N/A,,Mostly Cloudy,320,2012-10-04 10:55:00
6:15 AM,47.5,39.7,75,30.12,10.0,NW,13.8,20.7,N/A,,Mostly Cloudy,320,2012-10-04 11:15:00
6:35 AM,47.3,38.7,72,30.15,10.0,NNW,13.8,25.3,N/A,Thunderstorm,Mostly Cloudy,340,2012-10-04 11:35:00
6:55 AM,46.8,38.7,73,30.14,10.0,NNW,12.7,18.4,N/A,,Mostly Cloudy,330,2012-10-04 11:55:00
7:15 AM,46.4,37.9,72,30.16,10.0,NW,17.3,24.2,N/A,Thunderstorm,Mostly Cloudy,320,2012-10-04 12:15:00
7:35 AM,46.0,37.8,73,30.17,10.0,NW,17.3,25.3,N/A,,Scattered Clouds,310,2012-10-04 12:35:00
7:55 AM,45.5,36.5,71,30.18,10.0,NNW,16.1,27.6,N/A,,Mostly Cloudy,330,2012-10-04 12:55:00
8:15 AM,45.1,36.5,72,30.19,10.0,NW,13.8,19.6,N/A,Thunderstorm,Mostly Cloudy,320,2012-10-04 13:15:00
8:35 AM,45.1,36.7,72,30.19,10.0,NW,11.5,20.7,N/A,Thunderstorm,Overcast,320,2012-10-04 13:35:00
8:55 AM,45.5,36.9,72,30.21,10.0,NW,10.4,20.7,N/A,,Overcast,320,2012-10-04 13:55:00
9:15 AM,45.5,36.7,71,30.22,10.0,NW,16.1,-,N/A,Thunderstorm,Overcast,310,2012-10-04 14:15:00
9:35 AM,46.0,36.7,70,30.22,10.0,NW,12.7,21.9,N/A,,Overcast,320,2012-10-04 14:35:00
9:55 AM,46.6,36.0,67,30.23,10.0,NW,16.1,23.0,N/A,Thunderstorm,Overcast,320,2012-10-04 14:55:00
10:15 AM,47.1,36.0,65,30.23,10.0,NW,12.7,24.2,N/A,,Overcast,320,2012-10-04 15:15:00
10:35 AM,48.2,35.1,60,30.24,10.0,NW,15.0,21.9,N/A,,Mostly Cloudy,320,2012-10-04 15:35:00
10:55 AM,48.7,34.7,58,30.25,10.0,NNW,13.8,24.2,N/A,,Scattered Clouds,340,2012-10-04 15:55:00
11:15 AM,47.8,34.2,59,30.26,10.0,NW,16.1,24.2,N/A,,Mostly Cloudy,310,2012-10-04 16:15:00
11:35 AM,48.4,34.0,58,30.27,10.0,NNW,13.8,23.0,N/A,,Mostly Cloudy,330,2012-10-04 16:35:00
11:55 AM,49.1,34.3,57,30.28,10.0,NNW,9.2,21.9,N/A,,Scattered Clouds,340,2012-10-04 16:55:00
12:15 PM,50.4,34.5,55,30.28,10.0,NW,15.0,26.5,N/A,,Scattered Clouds,310,2012-10-04 17:15:00
12:35 PM,51.1,34.0,52,30.28,10.0,NW,13.8,20.7,N/A,,Scattered Clouds,320,2012-10-04 17:35:00
12:55 PM,52.2,34.5,51,30.27,10.0,NW,13.8,21.9,N/A,,Scattered Clouds,310,2012-10-04 17:55:00
1:35 PM,53.4,33.6,47,30.26,10.0,NW,16.1,24.2,N/A,,Scattered Clouds,320,2012-10-04 18:35:00
1:55 PM,54.3,33.4,45,30.26,10.0,NW,12.7,17.3,N/A,,Clear,320,2012-10-04 18:55:00
2:15 PM,54.1,32.9,45,30.26,10.0,NNW,13.8,26.5,N/A,,Clear,330,2012-10-04 19:15:00
2:35 PM,54.3,33.3,45,30.25,10.0,NNW,11.5,21.9,N/A,,Clear,330,2012-10-04 19:35:00
2:55 PM,55.4,33.6,44,30.25,10.0,NNW,10.4,13.8,N/A,,Clear,330,2012-10-04 19:55:00
3:15 PM,56.3,33.6,42,30.24,10.0,NW,11.5,-,N/A,,Clear,310,2012-10-04 20:15:00
3:35 PM,55.6,32.7,42,30.23,10.0,WNW,17.3,25.3,N/A,,Clear,300,2012-10-04 20:35:00
3:55 PM,55.9,32.0,40,30.24,10.0,NW,12.7,25.3,N/A,,Clear,320,2012-10-04 20:55:00
4:15 PM,56.1,32.2,40,30.24,10.0,NNW,10.4,18.4,N/A,,Clear,330,2012-10-04 21:15:00
4:35 PM,55.8,32.0,41,30.24,10.0,NNW,11.5,19.6,N/A,,Clear,330,2012-10-04 21:35:00
4:55 PM,55.8,32.2,41,30.24,10.0,NW,6.9,17.3,N/A,,Clear,320,2012-10-04 21:55:00
5:15 PM,56.3,32.0,40,30.24,10.0,NW,12.7,21.9,N/A,,Clear,320,2012-10-04 22:15:00
5:35 PM,55.6,31.8,41,30.24,7.0,NNW,9.2,16.1,N/A,,Clear,330,2012-10-04 22:35:00
5:55 PM,54.5,32.0,42,30.24,10.0,NNW,12.7,18.4,N/A,,Clear,330,2012-10-04 22:55:00
6:15 PM,54.1,32.0,43,30.25,10.0,NNW,9.2,-,N/A,,Clear,330,2012-10-04 23:15:00
6:35 PM,53.2,31.8,44,30.26,10.0,NNW,9.2,17.3,N/A,,Clear,330,2012-10-04 23:35:00
6:55 PM,52.5,32.0,46,30.26,10.0,NW,6.9,-,N/A,,Clear,320,2012-10-04 23:55:00
7:15 PM,52.2,31.8,46,30.26,10.0,NNW,6.9,-,N/A,,Clear,330,2012-10-05 00:15:00
7:35 PM,51.8,32.0,47,30.27,10.0,NW,6.9,-,N/A,,Clear,310,2012-10-05 00:35:00
7:55 PM,51.1,32.0,48,30.28,10.0,NW,6.9,-,N/A,,Clear,310,2012-10-05 00:55:00
8:15 PM,50.5,32.0,49,30.28,10.0,NW,6.9,-,N/A,,Clear,320,2012-10-05 01:15:00
8:35 PM,50.0,32.0,50,30.28,10.0,NW,5.8,-,N/A,,Clear,310,2012-10-05 01:35:00
8:55 PM,49.8,32.2,51,30.28,10.0,NW,6.9,-,N/A,,Clear,320,2012-10-05 01:55:00
9:15 PM,49.8,32.0,50,30.29,10.0,NNW,6.9,-,N/A,,Clear,330,2012-10-05 02:15:00
9:35 PM,50.0,32.0,50,30.30,10.0,NNW,9.2,-,N/A,,Clear,330,2012-10-05 02:35:00
9:55 PM,49.5,32.0,51,30.31,10.0,NW,8.1,-,N/A,,Clear,320,2012-10-05 02:55:00
10:15 PM,49.1,32.0,52,30.31,10.0,NNW,5.8,-,N/A,,Clear,330,2012-10-05 03:15:00
10:35 PM,49.1,31.8,51,30.30,10.0,NNW,8.1,-,N/A,,Clear,340,2012-10-05 03:35:00
10:55 PM,48.7,32.0,52,30.30,10.0,NW,8.1,-,N/A,,Clear,320,2012-10-05 03:55:00
11:15 PM,48.2,31.6,53,30.31,10.0,NNW,6.9,-,N/A,,Clear,340,2012-10-05 04:15:00
11:35 PM,47.3,31.1,53,30.31,10.0,NNW,5.8,-,N/A,,Clear,330,2012-10-05 04:35:00
11:55 PM,46.0,31.1,56,30.31,10.0,NNW,5.8,-,N/A,,Clear,340,2012-10-05 04:55:00